DW0868 Weather Reports


time (UTC)temp
F
wind
direction
speed
knots
gust
knots
rain 1hr
in
rain 24hr
in
rain mn
in
humidity
%
barometer
mb
20260507161552 59 257 2.6 0.0 0.00 0.00 0.22 71 1006.1
20260507160042 61 263 2.6 0.0 0.00 0.00 0.22 63 1006.2
20260507154539 59 294 0.9 0.0 0.00 0.00 0.22 63 1006.6
20260507153041 59 97 1.7 0.0 0.00 0.00 0.22 70 1006.7
20260507151536 58 285 2.6 0.0 0.00 0.00 0.22 66 1006.8
20260507150034 57 140 0.9 0.0 0.00 0.00 0.22 74 1006.8
20260507144534 55 43 0.9 0.0 0.00 0.00 0.22 84 1006.7
20260507143027 53 325 0.9 0.0 0.00 0.00 0.22 85 1006.8
20260507141523 52 285 1.7 0.0 0.00 0.00 0.22 87 1007.0
20260507140023 52 278 2.6 0.0 0.00 0.00 0.22 88 1007.1
20260507134522 51 274 0.9 0.0 0.00 0.00 0.22 90 1006.9
20260507133025 50 284 0.9 0.0 0.00 0.00 0.22 89 1007.1
20260507131520 50 286 0.0 0.0 0.00 0.00 0.22 90 1007.2
20260507130020 49 286 0.0 0.0 0.00 0.00 0.22 90 1007.1
20260507124521 48 49 0.0 0.0 0.00 0.00 0.22 90 1007.0
20260507123021 48 286 0.9 0.0 0.00 0.00 0.22 91 1007.3
20260507121518 48 279 0.0 0.0 0.00 0.00 0.22 90 1007.3
20260507120018 47 308 0.0 0.0 0.00 0.00 0.21 90 1007.1
20260507114517 47 273 0.0 0.0 0.00 0.00 0.21 90 1007.2
20260507113035 48 266 0.0 0.0 0.00 0.00 0.20 90 1007.1
20260507111514 48 270 0.9 0.0 0.00 0.00 0.19 91 1007.4
20260507110015 48 298 0.9 0.0 0.00 0.00 0.17 91 1006.3
20260507104508 49 317 0.0 0.0 0.00 0.00 0.17 91 1006.1
20260507103005 49 281 0.9 0.0 0.00 0.00 0.17 91 1006.6
20260507101508 50 244 0.9 0.0 0.00 0.00 0.17 92 1005.9
20260507100002 50 104 0.9 0.0 0.00 0.00 0.16 91 1005.5
20260507094607 51 194 0.9 0.0 0.00 0.00 0.15 91 1005.9
20260507093056 51 223 0.0 0.0 0.00 0.00 0.14 92 1005.6
20260507091617 52 275 1.7 0.0 0.00 0.00 0.13 92 1005.8
20260507090053 53 75 0.0 0.0 0.00 0.00 0.11 92 1005.3
20260507084604 54 294 0.0 0.0 0.00 0.00 0.09 92 1005.6
20260507083052 53 281 0.0 0.0 0.00 0.00 0.07 92 1005.5
20260507081557 53 274 3.5 0.0 0.00 0.00 0.02 92 1005.6
20260507080050 52 269 2.6 0.0 0.00 0.00 0.00 92 1004.9
20260507074555 53 282 1.7 0.0 0.00 0.00 0.00 92 1004.5
20260507073052 53 280 2.6 0.0 0.00 0.00 0.00 92 1004.5
20260507071546 53 264 2.6 0.0 0.00 0.00 0.00 92 1004.6
20260507070046 53 235 1.7 0.0 0.00 0.00 0.00 92 1005.0
20260507064548 53 274 1.7 0.0 0.00 0.00 0.00 92 1005.0
20260507063045 53 268 1.7 0.0 0.00 0.00 0.00 92 1004.7
20260507061542 54 276 1.7 0.0 0.00 0.00 0.00 92 1005.2
20260507060040 53 241 1.7 0.0 0.00 0.00 0.00 92 1005.3
20260507054539 53 262 2.6 0.0 0.00 0.00 0.00 92 1005.4
20260507053038 53 277 3.5 0.0 0.00 0.00 0.00 92 1005.7
20260507051536 53 271 3.5 0.0 0.00 0.00 0.00 92 1005.9
20260507050035 53 267 4.3 0.0 0.00 0.00 0.00 92 1006.0
20260507044534 53 273 6.1 0.0 0.00 0.00 0.00 92 1006.0
20260507043041 53 283 7.0 0.0 0.00 0.00 0.00 92 1005.9
20260507041531 53 273 7.8 0.0 0.00 0.00 0.00 92 1005.9
20260507040029 53 254 8.7 0.0 0.00 0.00 0.00 92 1006.2
20260507034534 53 262 9.6 0.0 0.00 0.00 0.08 92 1006.1
20260507033029 54 259 9.6 0.0 0.00 0.00 0.08 92 1006.4
20260507031528 53 277 11.3 0.0 0.00 0.00 0.08 92 1006.1
20260507030028 53 254 11.3 0.0 0.00 0.00 0.08 92 1006.1
20260507024525 54 231 10.4 0.0 0.00 0.00 0.08 91 1006.1
20260507023022 54 242 10.4 0.0 0.00 0.00 0.08 91 1006.3
20260507021522 54 263 10.4 0.0 0.00 0.00 0.08 91 1006.5
20260507020027 54 286 10.4 0.0 0.00 0.00 0.08 91 1006.8
20260507014518 55 250 11.3 0.0 0.00 0.00 0.08 91 1006.8
20260507013022 55 240 9.6 0.0 0.00 0.00 0.08 91 1007.2
20260507011528 55 248 10.4 0.0 0.00 0.00 0.08 91 1007.2
20260507010017 55 240 11.3 0.0 0.00 0.00 0.08 91 1007.3
20260507004515 55 279 10.4 0.0 0.00 0.00 0.07 91 1007.3
20260507003014 55 292 9.6 0.0 0.00 0.00 0.07 91 1007.1
20260507001543 55 299 10.4 0.0 0.00 0.00 0.07 91 1007.1
20260507000016 55 269 11.3 0.0 0.00 0.00 0.07 91 1006.9
20260506234512 55 257 11.3 0.0 0.00 0.00 0.07 91 1006.9
20260506233011 55 239 10.4 0.0 0.00 0.00 0.06 91 1006.9
20260506231507 55 240 13.0 0.0 0.00 0.00 0.05 91 1006.9
20260506230005 55 321 12.2 0.0 0.00 0.00 0.04 90 1007.0
20260506224503 55 248 12.2 0.0 0.00 0.00 0.02 89 1007.2
20260506223001 55 227 12.2 0.0 0.00 0.00 0.02 88 1007.4
20260506221617 55 240 12.2 0.0 0.00 0.00 0.01 88 1007.6
20260506220101 56 265 11.3 0.0 0.00 0.00 0.01 87 1007.5
20260506214559 56 244 11.3 0.0 0.00 0.00 0.00 85 1007.5
20260506213103 56 269 10.4 0.0 0.00 0.00 0.00 86 1007.7
20260506211555 56 224 10.4 0.0 0.00 0.00 0.00 86 1007.9
20260506210058 56 261 11.3 0.0 0.00 0.00 0.00 85 1008.0
20260506204556 56 274 10.4 0.0 0.00 0.00 0.00 85 1008.1
20260506203110 56 265 12.2 0.0 0.00 0.00 0.00 85 1008.2
20260506201551 56 271 10.4 0.0 0.00 0.00 0.00 83 1008.3
20260506200055 57 281 10.4 0.0 0.00 0.00 0.00 83 1008.5
20260506194549 57 289 12.2 0.0 0.00 0.00 0.00 82 1008.6
20260506193051 58 292 12.2 0.0 0.00 0.00 0.00 82 1008.9
20260506191547 57 207 12.2 0.0 0.00 0.00 0.00 82 1008.9
20260506190050 58 229 11.3 0.0 0.00 0.00 0.00 81 1008.9
20260506184548 58 244 11.3 0.0 0.00 0.00 0.00 80 1009.0
20260506183045 59 236 11.3 0.0 0.00 0.00 0.00 80 1009.4
20260506181548 58 226 13.0 0.0 0.00 0.00 0.00 80 1009.7
20260506180039 59 234 13.0 0.0 0.00 0.00 0.00 79 1009.8
20260506174539 60 262 13.9 0.0 0.00 0.00 0.00 79 1010.2
20260506173043 60 238 12.2 0.0 0.00 0.00 0.00 79 1010.2
20260506171537 60 234 12.2 0.0 0.00 0.00 0.00 77 1010.3
20260506170038 59 254 12.2 0.0 0.00 0.00 0.00 80 1010.5
20260506164633 59 288 12.2 0.0 0.00 0.00 0.00 80 1010.7
20260506163034 59 212 10.4 0.0 0.00 0.00 0.00 79 1010.9